This is the latest recevied weather packets stored in our database for station/object KC1DMA. If no packets are shown the sender has not sent any weather packets the latest 10 day(s).
| Time | Temp. | Humidity | Pressure | Rain* | Wind** | Luminosity | Snow |
|---|---|---|---|---|---|---|---|
| 1777937318 | 15.56° C | 57% | 1011.5 hPa | - | - | 20 W/m² | - |
| 1777937016 | 15.56° C | 57% | 1011.4 hPa | - | - | 23 W/m² | - |
| 1777936712 | 15.56° C | 56% | 1011 hPa | - | - | 27 W/m² | - |
| 1777936409 | 16.11° C | 56% | 1011.2 hPa | - | - | 33 W/m² | - |
| 1777936105 | 16.67° C | 54% | 1011 hPa | - | - | 39 W/m² | - |
| 1777935803 | 16.67° C | 54% | 1010.9 hPa | - | - | 46 W/m² | - |
| 1777935501 | 16.67° C | 53% | 1011 hPa | - | - | 52 W/m² | - |
| 1777935197 | 17.22° C | 53% | 1011.2 hPa | - | - | 60 W/m² | - |
| 1777934895 | 17.22° C | 52% | 1010.8 hPa | - | - | 67 W/m² | - |
| 1777934592 | 17.22° C | 51% | 1011.2 hPa | - | - | 76 W/m² | - |
| 1777934288 | 17.78° C | 51% | 1011 hPa | - | - | 85 W/m² | - |
| 1777933984 | 17.78° C | 51% | 1011.2 hPa | - | - | 96 W/m² | - |
| 1777933681 | 17.78° C | 50% | 1010.9 hPa | - | - | 109 W/m² | - |
| 1777933378 | 18.33° C | 49% | 1011 hPa | - | - | 125 W/m² | - |
| 1777933075 | 17.78° C | 49% | 1011 hPa | - | - | 142 W/m² | - |
| 1777932772 | 17.78° C | 49% | 1011.2 hPa | - | - | 158 W/m² | - |
| 1777932469 | 18.33° C | 47% | 1010.9 hPa | - | - | 172 W/m² | - |
| 1777932166 | 18.33° C | 47% | 1011 hPa | - | - | 193 W/m² | - |
| 1777931863 | 18.33° C | 47% | 1011 hPa | - | - | 208 W/m² | - |
| 1777931560 | 18.89° C | 46% | 1011 hPa | - | - | 224 W/m² | - |
| 1777931256 | 18.89° C | 45% | 1011 hPa | - | - | 240 W/m² | - |
| 1777930952 | 19.44° C | 45% | 1011 hPa | - | - | 255 W/m² | - |
| 1777930649 | 18.89° C | 45% | 1010.9 hPa | - | - | 271 W/m² | - |
| 1777930346 | 18.89° C | 44% | 1010.9 hPa | - | - | 287 W/m² | - |
| 1777930043 | 20° C | 43% | 1010.9 hPa | - | - | 296 W/m² | - |
* Rain since midnight (hover to see other rain measurements)
** Current wind speed in m/s (hover to see current wind gust speed)